Theta_e
306 306 306 307 307 307 309 305 309 309 309 310 310 311 310 310 312 312 313 313 314 313 306 306 309 309 312 313 312 311 307 306 308 307 309 311 311 313 314 314 316 317 317 318 319
307 306 306 306 306 306 307 308 309 306 306 309 310 310 309 307 307 306 308 311 310 315 309 305 307 311 313 313 312 310 307 307 306 306 310 310 311 311 313 314 315 317 318 318 319
306 305 305 305 305 306 306 306 307 308 308 307 303 303 304 304 302 301 305 305 309 312 316 309 308 313 312 312 311 309 308 306 310 310 311 311 311 312 311 312 314 316 317 318 318
306 306 306 305 304 305 305 305 305 306 308 308 307 305 303 302 298 308 311 311 307 308 313 316 309 314 310 310 311 310 309 309 310 311 312 311 311 311 311 312 313 314 314 317 318
307 307 308 306 304 304 304 304 304 305 306 308 307 306 304 303 301 309 313 313 313 310 312 315 312 313 310 308 310 309 309 310 311 311 310 311 311 310 312 313 313 313 313 313 316
305 307 307 307 306 305 304 303 303 304 305 306 307 306 305 301 302 300 309 312 312 312 311 312 311 313 311 310 309 310 310 310 311 311 311 311 310 311 312 313 314 314 314 314 313
306 304 306 306 305 306 304 303 303 302 304 305 305 308 306 304 303 301 302 311 313 312 311 310 310 313 312 309 310 310 310 308 308 310 310 311 309 307 312 312 313 313 313 313 313
305 306 305 305 306 305 306 305 303 302 302 304 304 305 308 306 304 303 303 307 312 313 313 311 308 307 308 309 309 310 309 310 308 308 310 311 308 307 310 310 311 312 312 313 314
304 304 305 305 306 306 306 306 304 301 302 303 303 304 307 305 305 304 303 309 311 312 312 312 311 308 308 306 307 306 307 308 309 307 309 308 309 308 310 310 310 311 311 311 311
302 303 303 304 306 306 305 306 304 303 302 304 303 304 305 305 305 304 303 305 308 310 311 311 310 306 303 304 309 307 307 306 307 307 307 308 307 306 309 308 309 310 310 311 311
301 301 302 303 304 306 305 306 305 303 302 304 303 303 304 304 305 304 303 302 309 310 308 309 307 308 306 304 305 304 307 307 306 307 308 306 306 305 307 307 306 308 310 310 311
299 300 300 301 303 305 306 306 304 303 302 302 303 303 303 303 304 304 304 303 307 307 307 308 310 306 305 305 305 305 306 306 305 305 306 305 306 305 305 307 308 309 310 311 311
298 299 299 301 302 302 304 306 305 302 300 300 301 302 302 302 304 304 305 305 304 306 306 306 304 305 306 305 306 305 305 304 306 305 305 304 304 303 304 306 307 308 309 309 311
297 298 298 300 300 301 302 303 305 302 302 301 300 301 302 303 304 304 305 305 305 305 305 305 304 305 306 306 306 308 304 305 306 306 306 303 301 301 303 302 303 306 307 308 308
296 296 297 297 301 301 302 302 304 301 304 300 300 301 301 303 302 303 304 305 303 304 305 305 303 305 305 306 305 306 304 305 305 305 306 305 305 302 302 303 302 303 306 307 308
295 295 296 297 298 299 301 302 300 302 303 301 301 301 301 302 301 303 305 306 305 303 303 302 303 303 303 304 305 305 305 306 304 304 307 304 303 302 302 304 304 304 306 308 309
295 294 295 295 297 298 299 300 301 304 301 302 301 301 301 302 302 303 304 306 306 305 305 304 303 303 303 304 304 305 306 308 308 310 307 303 305 304 302 303 303 304 307 308 308
295 294 294 294 295 296 297 298 299 302 301 300 301 301 301 302 302 302 303 305 304 300 301 304 304 303 303 303 304 307 306 304 303 306 303 304 307 305 303 305 306 307 307 308 307
295 295 295 294 294 295 298 300 299 302 301 302 300 301 301 301 302 302 302 303 303 301 300 303 302 301 302 303 302 303 307 304 304 296 304 302 303 302 303 305 304 305 306 307 306
295 296 294 293 293 294 297 300 299 300 301 301 301 300 299 301 301 301 301 300 302 303 299 300 302 300 301 303 303 303 303 305 304 301 302 300 303 303 303 304 304 302 303 305 305
295 294 292 292 294 295 295 298 298 299 300 301 300 297 299 301 299 301 301 299 301 301 301 300 300 300 301 303 303 304 306 304 302 303 303 300 299 298 300 301 301 301 304 304 305
295 294 294 294 294 293 295 294 298 300 299 300 299 299 299 299 299 299 299 300 300 300 302 301 301 300 299 299 300 302 303 304 306 304 303 302 300 299 300 301 302 302 303 304 304
293 293 293 293 292 292 290 294 295 298 301 300 299 299 298 300 300 299 299 299 299 300 301 301 302 301 298 299 295 296 301 302 303 304 306 305 302 301 298 298 300 301 303 304 304
292 291 292 294 293 290 291 293 295 297 300 299 298 298 299 298 294 297 299 299 300 300 302 302 292 298 298 298 298 299 299 300 302 305 304 304 303 302 302 301 301 302 303 303 303
292 291 292 291 293 291 293 294 296 297 297 299 299 299 300 295 294 292 297 298 298 301 301 296 292 294 295 299 301 300 301 301 300 300 302 301 301 302 301 299 299 301 302 303 304
292 292 293 289 292 293 293 293 297 299 298 299 298 300 298 296 297 298 299 298 300 298 298 297 288 287 290 298 298 299 299 300 301 301 300 300 301 300 298 299 299 300 300 301 302
292 293 293 292 293 293 294 294 298 299 297 299 299 298 296 298 297 298 299 297 298 298 293 292 290 286 287 287 293 298 297 299 300 301 302 302 301 296 296 296 296 296 295 297 300
Wind_Speed
17 14 15 14 14 12 12 16 18 18 18 18 19 19 21 22 21 20 20 12 8 10 9 11 13 13 15 11 7 6 3 4 5 7 5 1 2 2 3 4 7 9 5 4 3
21 19 17 18 14 14 13 12 13 16 19 22 21 21 21 21 24 27 23 17 11 11 13 10 13 13 8 8 8 5 5 10 6 4 4 2 1 2 0 3 5 7 10 8 7
23 21 23 19 17 17 19 16 13 14 15 15 14 15 15 15 18 9 7 17 22 17 14 11 11 13 6 6 8 6 6 5 4 8 3 1 2 2 2 4 6 7 8 9 11
27 24 21 23 20 20 21 18 18 15 15 13 11 10 10 8 5 2 3 6 16 24 15 13 12 9 6 5 6 2 8 5 3 7 3 1 4 4 5 1 4 4 2 8 12
30 28 27 23 19 19 22 20 20 18 17 13 11 10 8 7 14 4 3 4 5 13 17 15 15 11 5 5 5 3 3 7 16 7 6 8 9 6 15 13 11 10 7 8 11
31 32 29 27 26 23 20 19 14 21 17 17 12 14 12 6 11 12 12 8 7 6 12 17 9 14 8 4 7 3 7 11 6 7 7 3 6 3 17 16 18 19 19 14 14
32 33 32 31 28 26 24 21 17 21 18 19 16 14 20 25 9 8 13 14 12 9 6 14 11 14 6 2 7 2 4 4 6 8 6 2 9 10 35 23 17 13 15 17 16
31 32 34 32 31 29 26 22 16 14 19 18 19 16 15 12 7 15 16 19 15 13 8 6 15 7 4 1 3 3 2 2 2 9 6 14 16 7 20 24 29 32 32 32 30
30 30 31 30 31 29 28 24 18 15 20 18 23 15 11 8 15 17 21 18 17 15 10 7 6 6 5 5 2 4 4 5 5 12 5 8 3 8 15 16 19 22 22 23 26
34 32 31 30 29 29 26 26 22 19 18 15 17 5 18 6 10 13 17 22 12 11 9 10 6 3 2 5 10 6 5 4 5 1 4 6 10 8 11 7 13 17 21 23 24
28 27 29 31 29 29 26 25 18 11 26 14 9 10 6 2 11 4 10 23 14 12 6 6 4 13 9 7 3 5 3 5 2 0 2 7 9 9 22 12 12 24 27 29 29
30 31 32 27 26 23 30 38 30 9 6 32 20 24 17 3 3 9 11 17 16 17 8 5 20 7 7 8 6 4 4 4 4 4 1 5 14 9 11 14 19 25 29 29 30
29 28 26 24 24 27 31 41 33 17 5 12 41 35 24 30 10 9 20 17 10 17 17 9 3 10 7 5 8 6 9 4 2 5 2 6 15 9 9 19 22 28 34 34 34
27 28 26 19 26 31 33 27 35 33 4 7 13 19 28 7 11 26 23 18 8 14 11 12 10 6 2 10 9 11 7 6 4 3 4 2 7 5 0 7 6 20 27 33 35
30 28 29 29 16 18 24 34 36 29 9 7 10 7 23 25 11 25 26 17 8 8 9 6 7 13 7 8 9 6 7 10 7 6 1 5 3 6 3 5 9 9 22 24 23
29 28 25 26 29 31 11 13 33 9 8 7 9 12 16 26 3 9 23 12 12 6 2 5 1 6 7 5 14 5 5 4 3 4 5 12 8 4 5 7 6 4 6 8 8
30 28 27 28 30 26 24 22 9 10 11 9 10 15 20 15 15 7 17 15 8 10 13 9 6 1 4 6 2 4 7 4 4 5 8 7 8 19 5 4 5 5 9 16 18
28 28 30 30 28 27 21 7 11 7 10 3 11 18 15 16 17 12 17 17 14 3 7 10 6 11 5 6 7 13 6 5 9 6 4 8 7 7 9 22 28 26 26 23 24
29 30 31 30 28 27 22 14 8 5 9 13 17 19 8 15 8 12 12 19 14 8 6 8 6 1 6 4 7 4 9 8 2 2 0 5 7 9 5 4 6 10 13 18 22
36 31 34 34 29 29 11 23 3 7 12 18 9 8 9 20 8 11 15 13 12 16 3 5 2 6 4 4 5 6 5 2 3 2 5 4 5 6 3 1 3 2 10 21 17
31 13 32 34 28 18 10 7 8 14 12 18 6 7 8 17 11 18 17 3 20 13 11 5 4 2 6 6 13 6 5 5 5 5 5 3 6 8 11 10 5 5 13 17 23
10 9 10 28 10 2 9 9 4 10 25 10 6 6 13 20 11 10 13 11 19 13 14 9 4 3 6 1 1 6 12 12 7 6 8 12 8 5 7 4 1 8 21 32 36
13 9 11 33 9 9 4 9 17 7 12 12 6 8 9 15 8 4 8 6 23 16 15 9 5 4 4 3 5 3 5 3 10 10 9 8 7 6 7 7 9 14 32 40 40
11 3 10 25 8 12 13 17 19 17 4 7 3 6 14 10 4 10 12 3 19 11 17 22 3 6 6 3 5 2 2 5 7 7 14 16 19 23 19 15 15 22 25 30 37
13 6 10 4 7 9 7 10 18 10 15 13 3 19 15 6 4 4 4 6 4 15 9 8 6 4 4 4 4 5 5 5 6 13 12 18 18 19 17 8 9 17 25 30 32
8 8 8 5 7 15 17 20 20 20 17 11 12 20 15 13 10 18 11 5 7 3 6 2 1 4 3 3 7 4 7 9 12 15 9 19 20 13 7 16 15 18 21 26 30
24 22 10 8 5 6 17 23 25 15 2 17 19 15 11 14 14 12 19 11 14 10 4 6 6 3 5 3 4 3 14 15 8 7 11 12 11 5 5 9 13 22 23 24 26
Wind_Direction
279 271 251 257 264 270 269 251 254 257 260 266 272 272 278 282 282 280 267 258 264 234 228 221 212 197 188 185 178 150 89 221 220 159 237 284 182 198 223 192 184 197 228 242 213
272 275 264 257 255 257 257 260 268 267 262 261 265 270 275 284 286 276 265 254 246 229 224 224 210 193 183 190 187 156 160 213 204 207 224 183 67 288 293 196 212 216 229 237 218
275 277 272 270 257 251 255 254 259 270 276 275 269 271 277 284 298 284 252 239 229 220 224 221 208 196 209 189 190 181 205 208 231 216 180 229 268 259 182 249 221 215 227 230 215
266 268 269 270 280 256 250 253 250 252 271 277 282 280 280 268 240 256 264 262 219 214 218 212 200 189 194 196 206 204 237 189 243 196 185 211 296 290 223 212 181 149 215 226 219
264 263 258 255 264 266 261 261 258 244 246 263 271 282 277 240 242 183 202 164 176 207 210 208 198 185 183 201 161 211 249 221 237 232 273 285 259 251 270 249 245 256 270 263 239
265 262 259 257 256 258 257 273 299 229 243 247 253 265 256 232 258 247 212 194 186 187 215 205 204 205 211 206 180 224 234 250 254 253 256 247 274 193 263 260 261 255 259 255 247
262 258 260 256 256 254 249 247 264 230 237 235 248 251 250 243 267 243 217 209 202 197 202 207 208 191 197 228 221 213 288 299 217 215 226 7 278 218 254 253 255 257 248 246 251
262 258 258 256 253 251 245 244 242 237 236 239 243 260 253 259 237 250 231 212 212 211 202 193 211 207 194 164 21 170 166 247 255 172 226 167 251 241 255 249 255 257 257 258 260
265 259 259 255 251 247 245 235 233 228 228 238 244 248 254 241 257 251 221 217 219 214 211 205 189 191 156 102 3 341 194 205 306 197 164 194 263 253 256 238 248 261 266 267 268
264 261 262 259 249 243 238 236 223 227 222 222 227 245 240 230 242 251 223 212 208 205 186 191 181 158 141 146 214 205 210 220 202 268 247 239 251 288 270 220 261 273 280 282 280
261 259 260 256 253 242 230 219 207 210 207 195 206 198 98 9 235 231 215 192 185 189 174 177 166 213 186 198 132 144 194 203 249 282 274 247 266 269 276 272 245 270 274 275 275
259 256 259 259 247 243 227 214 208 213 180 217 219 221 208 255 303 215 190 172 187 204 169 148 228 180 164 177 185 154 188 221 287 328 268 315 289 255 264 262 252 262 268 270 275
258 257 252 247 245 244 240 224 216 196 172 206 218 216 212 234 228 219 190 189 188 197 203 206 313 174 150 165 185 210 202 163 197 340 303 338 290 243 241 249 252 257 265 267 267
256 250 251 250 245 243 247 250 213 200 232 197 197 229 215 170 224 220 198 184 192 208 187 227 215 94 105 200 173 223 174 158 197 82 242 99 280 290 160 277 239 254 258 261 264
253 245 250 239 239 229 238 234 196 185 233 163 163 181 192 176 141 202 206 190 169 180 172 197 161 206 204 216 174 223 160 185 172 184 26 227 283 273 276 277 271 253 257 264 273
249 243 240 235 236 238 212 244 175 182 227 170 140 169 159 193 157 133 176 181 171 164 242 201 211 172 204 157 181 162 101 94 105 129 240 227 198 248 189 197 248 249 279 288 280
241 241 232 235 233 233 236 216 205 214 143 156 170 174 174 180 188 155 177 188 169 178 202 195 223 257 151 124 136 155 147 131 184 198 231 170 160 252 274 235 233 251 289 311 312
234 235 232 234 234 231 231 210 228 222 165 175 153 162 178 158 199 174 175 194 209 137 163 191 190 207 199 180 172 194 183 157 190 189 239 154 215 257 213 234 245 261 283 295 311
232 230 230 227 227 226 216 220 214 170 166 156 145 157 161 180 167 175 191 201 199 185 150 174 229 117 198 161 145 193 217 203 40 54 69 196 276 306 209 220 253 269 297 312 318
228 222 228 225 220 220 231 236 235 147 178 163 151 170 159 176 150 171 170 200 190 187 189 187 143 201 180 109 279 161 164 206 175 214 240 235 262 232 66 262 218 342 334 338 338
213 205 235 221 212 212 225 228 194 221 175 199 159 146 167 169 178 180 178 164 194 174 166 146 96 36 118 190 196 187 207 207 178 198 209 249 248 208 211 228 261 327 344 338 330
195 186 201 196 200 188 225 226 203 182 202 249 195 108 166 169 161 177 191 193 183 145 183 193 128 181 207 237 132 214 223 212 212 204 236 245 243 181 148 163 268 305 316 317 315
170 185 192 187 200 213 250 234 228 199 198 204 244 136 174 159 148 156 173 189 166 171 170 155 185 162 343 352 5 154 197 199 241 265 223 235 250 272 323 319 303 298 311 313 313
163 175 204 197 179 185 208 229 219 218 246 198 220 139 125 147 14 167 168 97 173 165 162 155 125 185 193 182 137 174 200 220 214 238 247 250 269 274 273 284 294 305 307 304 302
181 203 192 195 178 217 206 223 225 214 203 203 241 165 150 124 101 133 133 105 119 180 157 148 165 150 208 163 156 195 211 187 197 239 244 256 248 259 268 292 292 304 304 304 303
180 199 179 156 166 203 214 230 238 200 169 204 188 168 165 149 181 167 143 122 163 121 143 193 130 106 288 245 192 237 255 235 231 245 244 249 260 268 346 346 332 322 326 317 314
204 201 197 233 186 225 217 221 228 172 241 174 186 156 144 170 136 127 127 116 148 144 135 125 128 92 250 347 93 277 236 230 215 204 214 223 243 51 339 333 330 327 323 318 317